Вернуться в каталог

KUIPER-00205

АктивенСвязьLEO
NORAD 67774·PAYLOAD·🇺🇸 United States

Запущен Feb 12, 2026 с Guiana Space Centre

Loading…

Ближайшие Пролёты (ближайшие 24 часа)

TLE

СвежийSource: CelesTrak SupGP

Эпоха: Sep 14, 2026, 23:30 UTC

1 67774C 26030L   26257.97962963  .00005499  00000+0  72005-3 0  2575
2 67774  51.8999  66.0603 0000631 100.4720 129.1624 14.79914427    13

Отслеживайте KUIPER-00205 в реальном времени с AllMySat

Download on the App Store